Airfield :
LOGIN :

Register | Disclaimer

   EN    FR    IT 

 










Legend :    VFR   Marginal VFR   IFR   Intensive IFR   Very Intensive IFR
Visi :
Ceiling :
>= 8 km
>= 3000ft
5 to 8 km
1000 to 3000 ft
1500m to 5 km
500 to 1000 ft
800 to 1500m
200 to 500 ft
< 800m
< 200 ft
Symbols :   Thunderstorms  Fog  Heavy snow  Heavy precipitations  Wind > 20 kt
SIGMETs :     Misc.  Thunderstorms  Icing  Turbulence  Mountain Waves  Volcanic Ashes






- Airport Elevation : 650 ft
- IATA code : ZJI


LSZL - Locarno

CURRENT METAR :
  • 221450Z AUTO 26004KT 170V320 9999NDV NCD 08/01 Q1024 RMK

EXPIRED METARs :
  • 221420Z AUTO 25005KT 210V290 9999NDV NCD 07/M00 Q1024 RMK
  • 221350Z AUTO 25006KT 220V290 9999NDV NCD 07/M01 Q1024 RMK
  • 221320Z AUTO 23003KT 9999NDV FEW100 08/M02 Q1024 RMK
  • 221250Z AUTO VRB02KT 9999NDV NCD 07/M03 Q1025 RMK
  • 221220Z AUTO 25004KT 210V290 9999NDV NCD 06/M03 Q1025 RMK

TAF TAF LSZL
Valid from the 22 at 12:00 until the 22 at 21:00 UTC


221125Z 2212/2221 VRB02KT CAVOK
TEMPO 2212/2218 09010KT
PROB30
TEMPO 2212/2215 08012G25KT



MET'MAP, your aeronautical weather chart ! - Copyright ORBIFLY December 2007 - Disclaimer

ORBIFLY MET'MAP TEAM :

Programming & Development : Alexandra Zaïnal
Concept & original design : Baudouin d'Aumeries
Assistance for programming : Marc-Olivier Méhu
Technical & hardware support : Manuel Goepfert

Contact : metmap@orbifly.com




SOURCES & CREDITS :

   NOAA